Location: Crescent
(42.8242°N, 73.7329°W)
Time: 03:46:52
(UTC+00:00)

Tiros 1 - Pass Details

Date: 24 February 2026
Orbit: 618 x 649 km, 48.4° (Epoch: 7 March)

Event Time Altitude Azimuth Distance (km) Brightness Sun altitude
Rises 17:04:11 0° 294° (WNW) 2,900 10.3 37.9°
Reaches altitude 10° 17:06:35 10° 287° (WNW) 1,988 9.6 37.9°
Maximum altitude 17:10:53 42° 217° (SW) 879 9.2 37.9°
Drops below altitude 10° 17:15:10 10° 146° (SE) 1,971 10.5 37.9°
Sets 17:17:32 0° 139° (SE) 2,873 11.0 37.9°
